Location: *
(28.3744°N, 81.5492°W)
Time: 04:09:28
(UTC+00:00)

COSMOS 2406 - Pass Details

Date: 15 June 2025
Orbit: 844 x 860 km, 71.0° (Epoch: 11 July)

Event Time Altitude Azimuth Distance (km) Brightness Sun altitude
Rises 08:30:01 0° 344° (NNW) 3,436 6.8 -22.0°
Reaches altitude 10° 08:32:30 10° 347° (NNW) 2,497 6.0 -21.6°
Maximum altitude 08:38:13 67° 70° (ENE) 925 3.5 -20.7°
Drops below altitude 10° 08:43:54 10° 153° (SSE) 2,483 5.5 -19.8°
Sets 08:46:21 0° 156° (SSE) 3,415 6.2 -19.4°
